Time,TemperatureF,DewpointF,PressureIn,WindDirection,WindDirectionDegrees,WindSpeedMPH,WindSpeedGustMPH,Humidity,HourlyPrecipIn,Conditions,Clouds,dailyrainin,SoftwareType,DateUTC
2017-08-24 00:00:00,70.5,59.4,30.01,ENE,68,0.0,0.0,68,0.00,,,0.00,Wunderground v.1.15,2017-08-24 04:00:00,
2017-08-24 00:10:00,70.3,59.6,30.01,ENE,68,0.0,0.0,69,0.00,,,0.00,Wunderground v.1.15,2017-08-24 04:10:00,
2017-08-24 00:15:00,70.2,60.0,30.01,ENE,68,0.0,0.0,70,0.00,,,0.00,Wunderground v.1.15,2017-08-24 04:15:00,
2017-08-24 00:25:00,70.0,59.8,30.01,ENE,68,0.0,0.0,70,0.00,,,0.00,Wunderground v.1.15,2017-08-24 04:25:00,
2017-08-24 00:30:00,69.9,59.7,30.01,ENE,68,0.0,0.0,70,0.00,,,0.00,Wunderground v.1.15,2017-08-24 04:30:00,
2017-08-24 00:40:00,69.6,59.8,30.01,ENE,68,0.0,0.0,71,0.00,,,0.00,Wunderground v.1.15,2017-08-24 04:40:00,
2017-08-24 00:45:00,69.5,59.7,30.01,ENE,68,0.0,0.0,71,0.00,,,0.00,Wunderground v.1.15,2017-08-24 04:45:00,
2017-08-24 00:55:00,69.3,59.5,30.01,ENE,68,0.0,0.0,71,0.00,,,0.00,Wunderground v.1.15,2017-08-24 04:55:00,
2017-08-24 01:00:00,69.1,58.9,30.00,ENE,68,0.0,0.0,70,0.00,,,0.00,Wunderground v.1.15,2017-08-24 05:00:00,
2017-08-24 01:10:00,68.8,57.8,30.00,ENE,68,0.0,0.0,68,0.00,,,0.00,Wunderground v.1.15,2017-08-24 05:10:00,
2017-08-24 01:15:00,68.7,58.5,30.00,ENE,68,0.0,0.0,70,0.00,,,0.00,Wunderground v.1.15,2017-08-24 05:15:00,
2017-08-24 01:25:00,68.4,57.0,30.00,ENE,68,0.0,0.0,67,0.00,,,0.00,Wunderground v.1.15,2017-08-24 05:25:00,
2017-08-24 01:30:00,68.3,57.3,30.00,ENE,68,0.0,0.0,68,0.00,,,0.00,Wunderground v.1.15,2017-08-24 05:30:00,
2017-08-24 01:40:00,68.0,57.0,30.00,ENE,68,0.0,1.0,68,0.00,,,0.00,Wunderground v.1.15,2017-08-24 05:40:00,
2017-08-24 01:45:00,67.9,57.4,30.00,ENE,68,0.0,1.0,69,0.00,,,0.00,Wunderground v.1.15,2017-08-24 05:45:00,
2017-08-24 01:55:00,67.5,58.2,30.00,ENE,68,0.0,0.0,72,0.00,,,0.00,Wunderground v.1.15,2017-08-24 05:55:00,
2017-08-24 02:00:00,67.2,57.9,30.00,ENE,68,0.0,0.0,72,0.00,,,0.00,Wunderground v.1.15,2017-08-24 06:00:00,
2017-08-24 02:10:00,66.9,57.2,30.00,ENE,68,0.0,1.0,71,0.00,,,0.00,Wunderground v.1.15,2017-08-24 06:10:00,
2017-08-24 02:15:00,66.8,57.1,29.99,ENE,68,0.0,1.0,71,0.00,,,0.00,Wunderground v.1.15,2017-08-24 06:15:00,
2017-08-24 02:25:00,66.6,57.3,29.99,ENE,68,0.0,0.0,72,0.00,,,0.00,Wunderground v.1.15,2017-08-24 06:25:00,
2017-08-24 02:30:00,66.6,57.3,29.99,ENE,68,0.0,0.0,72,0.00,,,0.00,Wunderground v.1.15,2017-08-24 06:30:00,
2017-08-24 02:40:00,66.4,57.9,29.99,ENE,68,0.0,0.0,74,0.00,,,0.00,Wunderground v.1.15,2017-08-24 06:40:00,
2017-08-24 02:45:00,66.3,58.1,29.99,ENE,68,0.0,0.0,75,0.00,,,0.00,Wunderground v.1.15,2017-08-24 06:45:00,
2017-08-24 02:55:00,66.1,58.7,30.00,ENE,68,0.0,0.0,77,0.00,,,0.00,Wunderground v.1.15,2017-08-24 06:55:00,
2017-08-24 03:00:00,65.9,57.7,30.00,ENE,68,0.0,0.0,75,0.00,,,0.00,Wunderground v.1.15,2017-08-24 07:00:00,
2017-08-24 03:05:00,65.8,56.9,29.99,ENE,68,0.0,0.0,73,0.00,,,0.00,Wunderground v.1.15,2017-08-24 07:05:00,
2017-08-24 03:15:00,65.8,56.1,29.99,ENE,68,0.0,0.0,71,0.00,,,0.00,Wunderground v.1.15,2017-08-24 07:15:00,
2017-08-24 03:25:00,65.8,56.5,30.00,ENE,68,0.0,0.0,72,0.00,,,0.00,Wunderground v.1.15,2017-08-24 07:25:00,
2017-08-24 03:30:00,65.7,56.8,30.00,ENE,68,0.0,0.0,73,0.00,,,0.00,Wunderground v.1.15,2017-08-24 07:30:00,
2017-08-24 03:40:00,65.6,56.3,30.00,ENE,68,0.0,0.0,72,0.00,,,0.00,Wunderground v.1.15,2017-08-24 07:40:00,
2017-08-24 03:45:00,65.5,56.2,30.00,ENE,68,0.0,0.0,72,0.00,,,0.00,Wunderground v.1.15,2017-08-24 07:45:00,
2017-08-24 03:55:00,65.4,56.9,30.00,ENE,68,0.0,0.0,74,0.00,,,0.00,Wunderground v.1.15,2017-08-24 07:55:00,
2017-08-24 04:00:00,65.3,56.8,30.00,ENE,68,0.0,0.0,74,0.00,,,0.00,Wunderground v.1.15,2017-08-24 08:00:00,
2017-08-24 04:10:00,65.2,57.1,30.00,ENE,68,0.0,0.0,75,0.00,,,0.00,Wunderground v.1.15,2017-08-24 08:10:00,
2017-08-24 04:15:00,65.2,57.1,30.00,ENE,68,0.0,0.0,75,0.00,,,0.00,Wunderground v.1.15,2017-08-24 08:15:00,
2017-08-24 04:25:00,65.1,57.3,30.01,ENE,68,0.0,0.0,76,0.00,,,0.00,Wunderground v.1.15,2017-08-24 08:25:00,
2017-08-24 04:30:00,65.1,57.3,30.01,ENE,68,0.0,0.0,76,0.00,,,0.00,Wunderground v.1.15,2017-08-24 08:30:00,
2017-08-24 04:40:00,65.2,57.1,30.01,ENE,68,0.0,0.0,75,0.00,,,0.00,Wunderground v.1.15,2017-08-24 08:40:00,
2017-08-24 04:45:00,65.3,57.2,30.01,ENE,68,0.0,0.0,75,0.00,,,0.00,Wunderground v.1.15,2017-08-24 08:45:00,
2017-08-24 04:55:00,65.4,57.3,30.01,ENE,68,0.0,0.0,75,0.00,,,0.00,Wunderground v.1.15,2017-08-24 08:55:00,